Location: Melizzano
(41.1500°N, 14.5000°E)
Time: 08:42:09
(UTC+00:00)

Cosmos 1709 Rocket - Pass Details

Date: 26 September 2021
Orbit: 948 x 1002 km, 82.9° (Epoch: 27 October)

Event Time Altitude Azimuth Distance (km) Brightness Sun altitude
Rises 03:33:54 0° 355° (N) 3,628 7.1 -15.7°
Reaches altitude 10° 03:36:26 10° 359° (N) 2,679 6.4 -15.3°
Maximum altitude 03:42:29 63° 80° (E) 1,057 4.5 -14.1°
Drops below altitude 10° 03:48:32 10° 161° (SSE) 2,679 6.4 -13.0°
Sets 03:51:04 0° 165° (SSE) 3,628 7.1 -12.5°
